Погода в Зрых

Россия / Республика Дагестан     41°29′47″N   47°33′47″E
темп.,
°C
ветер,
м/с
пор.,
м/с
влажн.,
%
обл.,
%
осадки,
мм/ч
давл.,
гПа
погр.,
м
14 апреля, ср
ср1400:00+1зюз118337 0.1 101716
03:00+1зюз11780 0.2 101517
06:00+1зюз22682 0.0 101529
09:00+8юв254094 0.1 10111896
12:00+7ююз455294 1.9 10111673
15:00+5зюз445791 3.8 10111274
18:00+3зюз34580 0.3 1014301
21:000зюз44530 0.3 101762
15 апреля, чт
чт1500:000зюз44520 0.0 101755
03:000зюз444711 0.0 101851
06:000з44440 0.0 101876
09:00+5зюз34380 0.0 10161363
12:00+7зюз35385 0.0 10151881
15:00+8зюз343883 0.0 10141857
18:00+5юз225278 0.0 101680
21:00+2зюз225382 0.0 101842
16 апреля, пт
пт1600:00+1з2253100 0.0 101821
03:00+1зсз2256100 0.0 101817
06:00+1з1160100 0.0 101914
09:00+6вюв124381 0.0 1017982
12:00+8ююв234490 0.4 10161754
15:00+8ю134944 1.8 10161470
18:00+5ю127010 0.7 1017391
21:00+3зюз348081 0.8 1020164
17 апреля, сб
сб1700:00+1з44855 0.0 102079
03:00+1з44793 0.0 102060
06:00+3зсз22656 0.0 102040
09:00+8вюв1242100 0.0 10181040
12:00+10юв1344100 0.0 10171609
15:00+10ююз144664 0.1 10161669
18:00+7ююз226775 0.1 1019187
21:00+4з2385100 0.3 1021311
18 апреля, вс
вс1800:00+4з348757 0.2 1020234
03:00+3з3388100 0.2 102058
06:00+4зюз228593 0.0 101870
09:00+9юз2362100 0.1 1016949
12:00+6з3487100 2.9 1017681
15:00+8з347632 6.7 1017529
18:00+7зюз3372100 0.0 101667
21:00+5з2280100 0.0 101939